Location: Darmstadt
(49.8706°N, 8.6494°E)
Time: 06:37:15
(UTC+01:00)

Cosmos 1315 Rocket - Pass Details

Date: 31 October 2020
Orbit: 530 x 567 km, 81.2° (Epoch: 03 December)

Event Time Altitude Azimuth Distance (km) Brightness Sun altitude
Rises 18:30:56 0° 180° (S) 2,685 6.4 -14.5°
Reaches altitude 10° 18:33:05 10° 177° (S) 1,804 5.5 -14.8°
Maximum altitude 18:37:00 59° 98° (E) 640 2.8 -15.5°
Drops below altitude 10° 18:40:59 10° 19° (NNE) 1,842 5.3 -16.1°
Sets 18:43:12 0° 16° (NNE) 2,749 6.2 -16.5°
